Weather History for Eveleth, MN

Change the Weather History Date:

Saturday, February 23, 2013

  Actual Average Record
Temperature  
Mean Temperature 24 °F -  
Max Temperature 32 °F 26 °F 41 °F (1998)
Min Temperature 17 °F 7 °F -14 °F (2003)
Degree Days  
Heating Degree Days 40    
Moisture  
Dew Point 21 °F    
Average Humidity 79    
Maximum Humidity 93    
Minimum Humidity 64    
Precipitation  
Precipitation 0.00 in - - ()
Sea Level Pressure  
Sea Level Pressure 29.81 in    
Wind  
Wind Speed 3 mph (NNW)    
Max Wind Speed 9 mph    
Max Gust Speed -    
Visibility 10 miles    
Events Snow    
Averages and records for this station are not official NWS values.
T = Trace of Precipitation, MM = Missing Value Source: NWS Daily Summary

Daily Weather History Graph

Daily Weather History Graph

Search for Another Location

Airport:

Trip Planner

Search our weather history database for the weather conditions in past years. The results will help you decide how hot, cold, wet, or windy it might be!

Date:

Astronomy

Feb. 23, 2013 Rise Set
Actual Time 7:00 AM CST 5:46 PM CST
Civil Twilight 6:29 AM CST 6:17 PM CST
Nautical Twilight 5:54 AM CST 6:53 PM CST
Astronomical Twilight 5:18 AM CST 7:28 PM CST
Moon 3:53 PM CST (2/23) 5:29 AM CST (2/23)
Length of Visible Light 11h 47m
Length of Day
10h 45m
Waxing Gibbous, 95% of the Moon is Illuminated
Feb 23
Waxing Gibbous
Feb 25
Full
Mar 4
Last Quarter
Mar 11
New
Mar 19
First Quarter

Hourly Weather History & Observations

Time (CST) Temp. Windchill Dew Point Humidity Pressure Visibility Wind Dir Wind Speed Gust Speed Precip Events Conditions
12:10 AM 23.0 °F 18.4 °F 19.4 °F 86% 29.83 in 5.0 mi NNE 3.5 mph - N/A Snow Light Snow
12:29 AM 23.0 °F 17.0 °F 19.4 °F 86% 29.82 in 10.0 mi NNE 4.6 mph - N/A Snow Light Snow
12:50 AM 23.0 °F 18.4 °F 19.4 °F 86% 29.82 in 7.0 mi NNE 3.5 mph - N/A Snow Light Snow
1:09 AM 23.0 °F - 19.4 °F 86% 29.82 in 10.0 mi Calm Calm - N/A Snow Light Snow
1:29 AM 23.0 °F 18.4 °F 19.4 °F 86% 29.82 in 10.0 mi NNE 3.5 mph - N/A Snow Light Snow
1:49 AM 23.0 °F 18.4 °F 19.4 °F 86% 29.82 in 10.0 mi NE 3.5 mph - N/A Snow Light Snow
2:09 AM 23.0 °F 18.4 °F 19.4 °F 86% 29.81 in 10.0 mi NNE 3.5 mph - N/A Snow Light Snow
2:30 AM 23.0 °F - 19.4 °F 86% 29.81 in 10.0 mi Calm Calm - N/A Snow Light Snow
2:49 AM 23.0 °F - 19.4 °F 86% 29.80 in 10.0 mi Calm Calm - N/A Snow Light Snow
3:09 AM 23.0 °F 18.4 °F 19.4 °F 86% 29.79 in 10.0 mi NNE 3.5 mph - N/A Snow Light Snow
3:30 AM 23.0 °F - 19.4 °F 86% 29.79 in 10.0 mi Calm Calm - N/A Snow Light Snow
3:49 AM 23.0 °F 17.0 °F 19.4 °F 86% 29.78 in 10.0 mi NE 4.6 mph - N/A   Overcast
4:09 AM 23.0 °F 15.8 °F 19.4 °F 86% 29.78 in 10.0 mi NE 5.8 mph - N/A   Overcast
4:30 AM 23.0 °F - 19.4 °F 86% 29.79 in 10.0 mi Calm Calm - N/A   Overcast
4:49 AM 23.0 °F - 19.4 °F 86% 29.79 in 10.0 mi Calm Calm - N/A   Overcast
5:09 AM 23.0 °F - 19.4 °F 86% 29.79 in 10.0 mi Calm Calm - N/A   Overcast
5:30 AM 23.0 °F - 19.4 °F 86% 29.79 in 10.0 mi Calm Calm - N/A   Overcast
5:49 AM 21.2 °F - 17.6 °F 86% 29.79 in 10.0 mi Calm Calm - N/A   Mostly Cloudy
6:09 AM 21.2 °F - 19.4 °F 93% 29.79 in 10.0 mi Calm Calm - N/A   Overcast
6:30 AM 21.2 °F - 19.4 °F 93% 29.79 in 10.0 mi Calm Calm - N/A   Overcast
6:49 AM 21.2 °F - 17.6 °F 86% 29.79 in 10.0 mi Calm Calm - N/A   Overcast
7:09 AM 17.6 °F - 15.8 °F 93% 29.79 in 10.0 mi Calm Calm - N/A   Mostly Cloudy
7:29 AM 17.6 °F - 14.0 °F 86% 29.79 in 10.0 mi Calm Calm - N/A   Clear
7:50 AM 17.6 °F - 15.8 °F 93% 29.79 in 10.0 mi Calm Calm - N/A   Clear
8:09 AM 19.4 °F 14.3 °F 17.6 °F 93% 29.79 in 10.0 mi NNE 3.5 mph - N/A   Clear
8:29 AM 21.2 °F - 19.4 °F 93% 29.79 in 10.0 mi Calm Calm - N/A   Clear
8:49 AM 21.2 °F - 19.4 °F 93% 29.79 in 7.0 mi Calm Calm - N/A   Clear
9:09 AM 23.0 °F - 19.4 °F 86% 29.79 in 10.0 mi Calm Calm - N/A   Mostly Cloudy
9:30 AM 23.0 °F - 19.4 °F 86% 29.80 in 10.0 mi Calm Calm - N/A   Overcast
9:49 AM 23.0 °F - 19.4 °F 86% 29.80 in 10.0 mi Calm Calm - N/A   Overcast
10:09 AM 24.8 °F - 19.4 °F 80% 29.80 in 10.0 mi Calm Calm - N/A   Overcast
10:30 AM 28.4 °F 24.6 °F 21.2 °F 74% 29.80 in 10.0 mi NE 3.5 mph - N/A   Overcast
10:50 AM 30.2 °F 24.3 °F 23.0 °F 75% 29.80 in 10.0 mi NNE 5.8 mph - N/A   Overcast
11:09 AM 30.2 °F 25.4 °F 23.0 °F 75% 29.80 in 10.0 mi NNE 4.6 mph - N/A   Overcast
11:29 AM 30.2 °F 26.7 °F 21.2 °F 69% 29.80 in 10.0 mi NE 3.5 mph - N/A   Overcast
11:49 AM 30.2 °F - 21.2 °F 69% 29.79 in 10.0 mi Calm Calm - N/A   Overcast
12:10 PM 32.0 °F 28.7 °F 23.0 °F 69% 29.79 in 10.0 mi West 3.5 mph - N/A   Mostly Cloudy
12:29 PM 32.0 °F 28.7 °F 23.0 °F 69% 29.79 in 10.0 mi West 3.5 mph - N/A   Mostly Cloudy
12:49 PM 32.0 °F 28.7 °F 23.0 °F 69% 29.79 in 10.0 mi WNW 3.5 mph - N/A   Mostly Cloudy
1:09 PM 32.0 °F 24.2 °F 23.0 °F 69% 29.79 in 10.0 mi WNW 9.2 mph - N/A   Overcast
1:29 PM 32.0 °F 25.6 °F 23.0 °F 69% 29.78 in 10.0 mi NW 6.9 mph - N/A   Overcast
1:50 PM 32.0 °F 26.4 °F 23.0 °F 69% 29.79 in 10.0 mi WNW 5.8 mph - N/A   Mostly Cloudy
2:09 PM 32.0 °F 27.5 °F 23.0 °F 69% 29.79 in 10.0 mi NW 4.6 mph - N/A   Overcast
2:29 PM 32.0 °F 24.2 °F 23.0 °F 69% 29.78 in 10.0 mi West 9.2 mph - N/A   Overcast
2:49 PM 32.0 °F 24.2 °F 23.0 °F 69% 29.78 in 10.0 mi WNW 9.2 mph - N/A   Overcast
3:09 PM 32.0 °F 24.8 °F 23.0 °F 69% 29.78 in 10.0 mi NNW 8.1 mph - N/A   Overcast
3:30 PM 32.0 °F 25.6 °F 21.2 °F 64% 29.78 in 10.0 mi NW 6.9 mph - N/A   Overcast
3:49 PM 32.0 °F 24.2 °F 21.2 °F 64% 29.79 in 10.0 mi NW 9.2 mph - N/A   Overcast
4:09 PM 32.0 °F 24.8 °F 21.2 °F 64% 29.79 in 10.0 mi NNW 8.1 mph - N/A   Overcast
4:30 PM 32.0 °F 26.4 °F 21.2 °F 64% 29.79 in 10.0 mi WNW 5.8 mph - N/A   Overcast
4:49 PM 32.0 °F 25.6 °F 23.0 °F 69% 29.80 in 10.0 mi NW 6.9 mph - N/A   Overcast
5:09 PM 32.0 °F 26.4 °F 23.0 °F 69% 29.80 in 10.0 mi WNW 5.8 mph - N/A   Overcast
5:29 PM 32.0 °F 26.4 °F 23.0 °F 69% 29.81 in 10.0 mi NW 5.8 mph - N/A   Overcast
5:49 PM 32.0 °F 27.5 °F 23.0 °F 69% 29.81 in 10.0 mi NNW 4.6 mph - N/A   Overcast
6:10 PM 32.0 °F 27.5 °F 23.0 °F 69% 29.82 in 10.0 mi NW 4.6 mph - N/A   Overcast
6:50 PM 32.0 °F 28.7 °F 23.0 °F 69% 29.83 in 10.0 mi WNW 3.5 mph - N/A   Overcast
7:09 PM 32.0 °F 28.7 °F 23.0 °F 69% 29.83 in 10.0 mi WNW 3.5 mph - N/A   Overcast
7:29 PM 30.2 °F - 23.0 °F 75% 29.83 in 10.0 mi Calm Calm - N/A   Overcast
7:50 PM 30.2 °F - 23.0 °F 75% 29.83 in 10.0 mi Calm Calm - N/A   Overcast
8:09 PM 30.2 °F 26.7 °F 23.0 °F 75% 29.84 in 10.0 mi WNW 3.5 mph - N/A   Overcast
8:29 PM 30.2 °F 26.7 °F 23.0 °F 75% 29.84 in 10.0 mi WNW 3.5 mph - N/A   Overcast
8:50 PM 30.2 °F 26.7 °F 21.2 °F 69% 29.84 in 10.0 mi WNW 3.5 mph - N/A   Overcast
9:09 PM 28.4 °F 24.6 °F 21.2 °F 74% 29.85 in 10.0 mi WNW 3.5 mph - N/A   Overcast
9:29 PM 28.4 °F - 21.2 °F 74% 29.85 in 10.0 mi Calm Calm - N/A   Scattered Clouds
9:50 PM 26.6 °F 22.6 °F 19.4 °F 74% 29.86 in 10.0 mi WNW 3.5 mph - N/A   Scattered Clouds
10:29 PM 23.0 °F 18.4 °F 19.4 °F 86% 29.86 in 10.0 mi NW 3.5 mph - N/A   Mostly Cloudy
10:50 PM 21.2 °F 14.9 °F 17.6 °F 86% 29.87 in 10.0 mi West 4.6 mph - N/A   Scattered Clouds
11:09 PM 23.0 °F - 19.4 °F 86% 29.87 in 10.0 mi Calm Calm - N/A   Clear
11:29 PM 21.2 °F 16.4 °F 17.6 °F 86% 29.88 in 10.0 mi West 3.5 mph - N/A   Clear
11:49 PM 21.2 °F 13.6 °F 17.6 °F 86% 29.89 in 10.0 mi WNW 5.8 mph - N/A   Clear